Terug naar catalogus

STARLINK-1319

ActiefCommunicatieVLEO
NORAD 45379·PAYLOAD·🇺🇸 United States

Gelanceerd Mar 18, 2020 vanaf Cape Canaveral Space Force Station

Loading…

Volgende Passages (komende 24 uur)

TLE

VersSource: CelesTrak SupGP

Epoch: Sep 15, 2026, 01:40 UTC

1 45379C 20019V   26258.06993056  .01270800  00000+0  62361-3 0  2587
2 45379  53.0212 257.7144 0005220  38.7385 347.5176 16.20253930    11

Volg STARLINK-1319 in realtime met AllMySat

Download on the App Store